Flag for Germany Weather past 2 weeks in Velbert, North Rhine-Westphalia, Germany

Now
70 °F

Sunny.


Feels Like: 70 °F
Forecast: 62 / 77 °F
Wind: 7 mph from Northeast

Location: Duesseldorf

Current Time: Jul 23, 2014 at 10:54:08 AM

Latest Report: Jul 23, 2014 at 7:20 AM


Visibility: 10 mi

Pressure: 30.09 "Hg

Humidity: 73%

Dew point: 61 °F

Location of VelbertLocation

Historic Weather in Velbert — Graph

°F

Velbert temperature yesterday

Maximum temperature yesterday: 81 °F (at 4:50 PM)
Minimum temperature yesterday: 68 °F (at 12:20 AM)
Average temperature yesterday: 71 °F

Past Weeks' High & Low Weather Summary

 TemperatureHumidityPressure
High93 °F (Jul 19, 3:50 PM)100% (Jul 9, 6:50 AM)30.18 "Hg (Jul 9, 6:50 AM)
Low54 °F (Jul 9, 6:50 AM)23% (Jul 19, 4:50 PM)29.65 "Hg (Jul 9, 3:50 PM)
Average70 °F75%29.94 "Hg
* Reported Jul 8 7:20 AM — Jul 23 7:20 AM, Velbert, Weather by CustomWeather, © 2014

Note: Actual official high and low records may vary slightly from our data, if they occured in-between our weather recording intervals... More about our weather records

Advertising

Velbert weather history for previous 24 hours

 ConditionsComfort  
Time TempWeatherWind HumidityBarometerVisibility
7:20 AM
Jul 23
70 °FSunny.7 mph73%30.09 "Hg10 mi
6:50 AM68 °FSunny.6 mph78%30.07 "Hg10 mi
6:20 AM68 °FClear.6 mph83%30.07 "Hg10 mi
5:50 AM68 °FClear.8 mph83%30.07 "Hg10 mi
5:20 AM66 °FClear.7 mph88%30.07 "Hg10 mi
4:50 AM64 °FClear.6 mph88%30.07 "Hg10 mi
4:20 AM64 °FClear.7 mph88%30.07 "Hg10 mi
3:50 AM64 °FClear.7 mph88%30.07 "Hg10 mi
3:20 AM64 °FClear.6 mph88%30.07 "Hg10 mi
2:50 AM64 °FClear.5 mph88%30.07 "Hg10 mi
2:20 AM64 °FClear.2 mph88%30.09 "Hg10 mi
1:50 AM66 °FClear.3 mph83%30.09 "Hg10 mi
6:50 PM
Jul 22
79 °FSunny.14 mph54%30.04 "Hg10 mi
6:20 PM79 °FPartly sunny.13 mph54%30.04 "HgN/A
5:50 PM79 °FPartly sunny.14 mph58%30.04 "HgN/A
5:20 PM79 °FSunny.13 mph58%30.04 "Hg10 mi
4:50 PM81 °FSunny.13 mph58%30.04 "Hg10 mi
4:20 PM79 °FSunny.13 mph58%30.04 "Hg10 mi
3:50 PM79 °FSunny.12 mph61%30.04 "Hg10 mi
3:20 PM77 °FSunny.13 mph61%30.07 "Hg10 mi
2:50 PM75 °FSunny.10 mph65%30.07 "Hg10 mi
2:20 PM75 °FPartly sunny.12 mph69%30.07 "HgN/A
1:50 PM75 °FPartly sunny.14 mph65%30.07 "HgN/A
1:20 PM73 °FPartly sunny.10 mph69%30.07 "HgN/A
12:50 PM73 °FPartly sunny.9 mph69%30.07 "HgN/A
12:20 PM72 °FPartly sunny.12 mph73%30.07 "HgN/A
11:50 AM72 °FPartly sunny.12 mph73%30.04 "HgN/A
11:20 AM70 °FPartly sunny.10 mph78%30.04 "HgN/A
10:50 AM70 °FPartly sunny.8 mph78%30.04 "HgN/A
10:20 AM68 °FPartly sunny.8 mph83%30.04 "HgN/A
Weather by CustomWeather, © 2014

See weather overviewHow to use our weather pages